map of IVL home
Great Circle Mapper logo
IVL - Airport
Location
City:  Ivalo, Lappi (Lappland (Lapland)), Finland
ICAO:EFIV
IATA:IVL

Details
Type:Airport (Aerodrome, Airfield)
Use:Public/Civil, International (customs port of entry)
Latitude:6836'26"N (68.607269)
Longitude:2724'19"E (27.405328)
Datum:WGS 1984
Elevation:481 ft (147 m)
Variation:12.84E (WMM2015 magnetic declination)
0.21 annual change
Runways:2
Longest:8199 × 148 ft (2499 × 45 m), paved

Time
Time Zone:UTC+2 (DST+3)
Local Time:

Weather
METAR:EFIV 260750Z AUTO 05005KT 010V090 9999 OVC009 15/13 Q1016

Related Locations
Nearby:
Farthest:NZWD: 11434 mi / 18402 km
McMurdo Station [Williams Field], Ross Island, AQ

Find:

   beyond  
but within

Other Information
Maps:
NOTAMs:
Links:
Sources:

  
flag of Finland   

Sectional Chart

Flight Planning
at skyvector.com

Satellite Image

Google Maps Satellite view

 

Copyright © 2004-2016 Karl L. Swartz. All rights reserved.
The Great Circle Mapper name and logo are trademarks of the Great Circle Mapper.
All other trademarks mentioned herein belong to their respective owners.
Please see credits for attibutions and further copyright information.

  Follow gcmap on Facebook Follow gcmap on Twitter Follow gcmap on Google+ GCmap on LinkedIn

hCard Microformat

Geo Microformat